BCO4007 ZSQD-VHHH

Flight info

Callsign BCO4007
Flight time 3h 9m
Altitude 29100
Route LAT81D LATUX W108 MATNU W115 PINOT W13 BEGMO M503 TOLAK/N0418F292 M503 LELIM V591 ABBEY
Aircraft A337/H-SDE3GHIJ2J3J5M1RVWXY/LB2D1

Departure

Time 2026-04-22 06:54
Airport Qingdao Jiaodong International Airport (ZSQD)

Arrival

Time 2026-04-22 10:03
Airport Hong Kong International Airport (VHHH)
Time Latitude Longitude Altitude Speed Heading
2026-04-22 06:34 36.37734 120.07451 43 ft 0 kts 75°
2026-04-22 06:46 36.37729 120.07424 40 ft 4 kts 78°
2026-04-22 06:46 36.37724 120.07391 41 ft 4 kts 83°
2026-04-22 06:46 36.37723 120.07358 41 ft 5 kts 97°
2026-04-22 06:47 36.37730 120.07329 43 ft 6 kts 141°
2026-04-22 06:47 36.37736 120.07323 40 ft 6 kts 162°
2026-04-22 06:49 36.37735 120.07324 40 ft 1 kts 162°
2026-04-22 06:50 36.37717 120.07331 40 ft 5 kts 162°
2026-04-22 06:50 36.37666 120.07351 43 ft 10 kts 162°
2026-04-22 06:50 36.37601 120.07377 39 ft 11 kts 162°
2026-04-22 06:50 36.37525 120.07407 41 ft 12 kts 162°
2026-04-22 06:51 36.37437 120.07443 42 ft 14 kts 162°
2026-04-22 06:51 36.37337 120.07483 43 ft 16 kts 162°
2026-04-22 06:51 36.37232 120.07518 43 ft 12 kts 182°
2026-04-22 06:51 36.37208 120.07486 43 ft 7 kts 244°
2026-04-22 06:52 36.37172 120.07360 39 ft 17 kts 249°
2026-04-22 06:52 36.37126 120.07221 41 ft 13 kts 232°
2026-04-22 06:52 36.37067 120.07186 41 ft 8 kts 191°
2026-04-22 06:52 36.37033 120.07194 41 ft 4 kts 162°
2026-04-22 06:53 36.36970 120.07220 40 ft 26 kts 162°
2026-04-22 06:53 36.36610 120.07361 40 ft 83 kts 162°
2026-04-22 06:53 36.35871 120.07651 43 ft 136 kts 162°
2026-04-22 06:53 36.34846 120.08054 178 ft 169 kts 162°
2026-04-22 06:54 36.33855 120.08474 595 ft 130 kts 159°
2026-04-22 06:54 36.33063 120.08883 630 ft 133 kts 160°
2026-04-22 06:54 36.32140 120.09279 1045 ft 146 kts 161°
2026-04-22 06:54 36.31104 120.09655 1302 ft 166 kts 162°
2026-04-22 06:55 36.29921 120.10073 1561 ft 187 kts 160°
2026-04-22 06:55 36.28608 120.10580 1835 ft 209 kts 156°
2026-04-22 06:55 36.27291 120.11533 2064 ft 230 kts 135°
2026-04-22 06:55 36.26391 120.13238 2371 ft 245 kts 107°
2026-04-22 06:56 36.26266 120.15209 2898 ft 247 kts 81°
2026-04-22 06:56 36.26696 120.17276 3603 ft 248 kts 72°
2026-04-22 06:56 36.27237 120.19298 4324 ft 247 kts 71°
2026-04-22 06:56 36.27773 120.21296 5129 ft 243 kts 71°
2026-04-22 06:57 36.28298 120.23284 5825 ft 244 kts 71°
2026-04-22 06:57 36.28823 120.25297 6467 ft 248 kts 71°
2026-04-22 06:57 36.29357 120.27359 7071 ft 253 kts 71°
2026-04-22 06:57 36.29896 120.29457 7665 ft 258 kts 71°
2026-04-22 06:58 36.30257 120.31659 8255 ft 265 kts 86°
2026-04-22 06:58 36.29953 120.33927 8875 ft 274 kts 110°
2026-04-22 06:58 36.28848 120.35879 9462 ft 285 kts 136°
2026-04-22 06:58 36.27097 120.37098 10037 ft 295 kts 157°
2026-04-22 06:59 36.25105 120.37902 10368 ft 309 kts 160°
2026-04-22 06:59 36.22995 120.38680 10594 ft 324 kts 161°
2026-04-22 06:59 36.20794 120.39497 10958 ft 334 kts 161°
2026-04-22 06:59 36.18552 120.40344 11437 ft 339 kts 161°
2026-04-22 07:00 36.16288 120.41211 11950 ft 343 kts 161°
2026-04-22 07:00 36.13997 120.42094 12456 ft 346 kts 161°
2026-04-22 07:00 36.11686 120.42986 13006 ft 349 kts 161°
2026-04-22 07:00 36.09353 120.43888 13532 ft 353 kts 161°
2026-04-22 07:01 36.07003 120.44797 14017 ft 356 kts 162°
2026-04-22 07:01 36.04674 120.45698 14468 ft 359 kts 162°
2026-04-22 07:01 36.02286 120.46621 14924 ft 361 kts 163°
2026-04-22 07:01 35.99884 120.47550 15404 ft 363 kts 164°
2026-04-22 07:02 35.97468 120.48483 15891 ft 364 kts 164°
2026-04-22 07:02 35.95089 120.49548 16382 ft 366 kts 159°
2026-04-22 07:02 35.92739 120.50804 16829 ft 369 kts 159°
2026-04-22 07:02 35.90387 120.52099 17262 ft 371 kts 159°
2026-04-22 07:03 35.88025 120.53403 17681 ft 374 kts 159°
2026-04-22 07:03 35.85643 120.54714 18120 ft 376 kts 160°
2026-04-22 07:03 35.83243 120.56032 18519 ft 378 kts 160°
2026-04-22 07:03 35.80828 120.57356 18861 ft 381 kts 160°
2026-04-22 07:04 35.78400 120.58686 19216 ft 383 kts 160°
2026-04-22 07:04 35.75964 120.60020 19586 ft 385 kts 160°
2026-04-22 07:04 35.73511 120.61377 19940 ft 388 kts 159°
2026-04-22 07:04 35.71108 120.62915 20280 ft 391 kts 156°
2026-04-22 07:05 35.68720 120.64532 20634 ft 394 kts 156°
2026-04-22 07:05 35.66315 120.66171 20959 ft 396 kts 156°
2026-04-22 07:05 35.63900 120.67812 21294 ft 398 kts 156°
2026-04-22 07:05 35.61474 120.69456 21633 ft 399 kts 156°
2026-04-22 07:06 35.59047 120.71098 22019 ft 399 kts 156°
2026-04-22 07:06 35.56607 120.72747 22327 ft 401 kts 156°
2026-04-22 07:06 35.54154 120.74402 22623 ft 403 kts 156°
2026-04-22 07:06 35.51721 120.76043 22933 ft 405 kts 156°
2026-04-22 07:07 35.49204 120.77726 23238 ft 406 kts 158°
2026-04-22 07:07 35.46658 120.79214 23521 ft 406 kts 161°
2026-04-22 07:07 35.44063 120.80575 23772 ft 406 kts 163°
2026-04-22 07:07 35.41447 120.81868 24000 ft 408 kts 164°
2026-04-22 07:08 35.38793 120.83148 24244 ft 409 kts 164°
2026-04-22 07:08 35.36183 120.84404 24526 ft 408 kts 164°
2026-04-22 07:08 35.33525 120.85693 24866 ft 407 kts 164°
2026-04-22 07:08 35.30923 120.86964 25168 ft 406 kts 164°
2026-04-22 07:09 35.28268 120.88268 25456 ft 406 kts 165°
2026-04-22 07:09 35.25649 120.89560 25733 ft 406 kts 165°
2026-04-22 07:09 35.23030 120.90852 26010 ft 405 kts 165°
2026-04-22 07:09 35.20415 120.92143 26304 ft 405 kts 165°
2026-04-22 07:10 35.17834 120.93416 26546 ft 406 kts 165°
2026-04-22 07:10 35.15173 120.94727 26586 ft 410 kts 165°
2026-04-22 07:10 35.12550 120.96022 26585 ft 414 kts 165°
2026-04-22 07:10 35.09874 120.97349 26567 ft 415 kts 165°
2026-04-22 07:11 35.07202 120.98680 26581 ft 415 kts 165°
2026-04-22 07:11 35.04528 121.00012 26578 ft 414 kts 165°
2026-04-22 07:11 35.01859 121.01340 26583 ft 414 kts 165°
2026-04-22 07:11 34.99186 121.02668 26579 ft 414 kts 165°
2026-04-22 07:12 34.96518 121.03991 26582 ft 414 kts 165°
2026-04-22 07:12 34.93847 121.05314 26581 ft 414 kts 165°
2026-04-22 07:12 34.91179 121.06634 26579 ft 414 kts 165°
2026-04-22 07:12 34.88506 121.07956 26577 ft 414 kts 165°
2026-04-22 07:13 34.85833 121.09276 26581 ft 414 kts 165°
2026-04-22 07:13 34.83164 121.10594 26569 ft 414 kts 165°
2026-04-22 07:13 34.80494 121.11912 26571 ft 415 kts 165°
2026-04-22 07:13 34.77819 121.13231 26572 ft 415 kts 165°
2026-04-22 07:14 34.75147 121.14547 26572 ft 415 kts 165°
2026-04-22 07:14 34.72474 121.15863 26569 ft 415 kts 165°
2026-04-22 07:14 34.69801 121.17178 26567 ft 415 kts 165°
2026-04-22 07:14 34.67126 121.18494 26570 ft 415 kts 165°
2026-04-22 07:15 34.64456 121.19806 26564 ft 415 kts 165°
2026-04-22 07:15 34.61779 121.21120 26569 ft 415 kts 165°
2026-04-22 07:15 34.59105 121.22432 26565 ft 415 kts 165°
2026-04-22 07:15 34.56431 121.23743 26568 ft 414 kts 165°
2026-04-22 07:16 34.53761 121.25051 26553 ft 414 kts 165°
2026-04-22 07:16 34.51082 121.26363 26559 ft 415 kts 165°
2026-04-22 07:16 34.48406 121.27672 26558 ft 415 kts 165°
2026-04-22 07:16 34.45727 121.28982 26558 ft 415 kts 165°
2026-04-22 07:17 34.43047 121.30291 26553 ft 415 kts 165°
2026-04-22 07:17 34.40369 121.31600 26554 ft 415 kts 165°
2026-04-22 07:17 34.37694 121.32905 26556 ft 415 kts 165°
2026-04-22 07:17 34.35019 121.34209 26556 ft 415 kts 165°
2026-04-22 07:18 34.32338 121.35515 26544 ft 415 kts 165°
2026-04-22 07:18 34.29653 121.36823 26549 ft 415 kts 165°
2026-04-22 07:18 34.26974 121.38126 26550 ft 415 kts 165°
2026-04-22 07:18 34.24297 121.39428 26549 ft 415 kts 165°
2026-04-22 07:19 34.21616 121.40731 26543 ft 415 kts 165°
2026-04-22 07:19 34.18936 121.42033 26540 ft 415 kts 165°
2026-04-22 07:19 34.16254 121.43334 26541 ft 415 kts 165°
2026-04-22 07:19 34.13575 121.44633 26542 ft 415 kts 165°
2026-04-22 07:20 34.10892 121.45933 26537 ft 415 kts 165°
2026-04-22 07:20 34.08216 121.47230 26516 ft 415 kts 165°
2026-04-22 07:20 34.05533 121.48527 26533 ft 414 kts 165°
2026-04-22 07:20 34.02864 121.49818 26529 ft 414 kts 165°
2026-04-22 07:21 34.00187 121.51113 26530 ft 414 kts 165°
2026-04-22 07:21 33.97517 121.52402 26515 ft 414 kts 165°
2026-04-22 07:21 33.94847 121.53691 26524 ft 413 kts 165°
2026-04-22 07:21 33.92178 121.54978 26525 ft 413 kts 165°
2026-04-22 07:22 33.89547 121.56246 26522 ft 413 kts 165°
2026-04-22 07:22 33.86878 121.57532 26522 ft 413 kts 165°
2026-04-22 07:22 33.84211 121.58815 26522 ft 413 kts 165°
2026-04-22 07:22 33.81542 121.60099 26504 ft 413 kts 165°
2026-04-22 07:23 33.78876 121.61381 26520 ft 413 kts 165°
2026-04-22 07:23 33.76213 121.62660 26520 ft 412 kts 165°
2026-04-22 07:23 33.73544 121.63942 26511 ft 412 kts 165°
2026-04-22 07:23 33.70883 121.65224 26508 ft 412 kts 165°
2026-04-22 07:24 33.68228 121.66516 26509 ft 412 kts 165°
2026-04-22 07:24 33.65573 121.67816 26508 ft 412 kts 164°
2026-04-22 07:24 33.62918 121.69118 26509 ft 412 kts 164°
2026-04-22 07:24 33.60260 121.70421 26505 ft 412 kts 164°
2026-04-22 07:25 33.57605 121.71721 26505 ft 412 kts 164°
2026-04-22 07:25 33.54952 121.73018 26496 ft 412 kts 165°
2026-04-22 07:25 33.52297 121.74317 26506 ft 412 kts 165°
2026-04-22 07:25 33.49637 121.75616 26495 ft 412 kts 165°
2026-04-22 07:26 33.46983 121.76912 26495 ft 412 kts 165°
2026-04-22 07:26 33.44328 121.78207 26495 ft 412 kts 165°
2026-04-22 07:26 33.41674 121.79502 26494 ft 412 kts 165°
2026-04-22 07:26 33.39015 121.80797 26490 ft 412 kts 165°
2026-04-22 07:27 33.36356 121.82091 26493 ft 413 kts 165°
2026-04-22 07:27 33.33691 121.83388 26495 ft 413 kts 165°
2026-04-22 07:27 33.31030 121.84682 26497 ft 413 kts 165°
2026-04-22 07:27 33.28364 121.85978 26477 ft 414 kts 164°
2026-04-22 07:28 33.23020 121.88571 26486 ft 415 kts 164°
2026-04-22 07:28 33.20346 121.89869 26489 ft 415 kts 164°
2026-04-22 07:28 33.17677 121.91163 26480 ft 415 kts 164°
2026-04-22 07:29 33.15003 121.92459 26475 ft 415 kts 164°
2026-04-22 07:29 33.12334 121.93751 26477 ft 415 kts 164°
2026-04-22 07:29 33.09661 121.95044 26475 ft 415 kts 164°
2026-04-22 07:29 33.06986 121.96338 26476 ft 415 kts 164°
2026-04-22 07:30 33.04306 121.97633 26473 ft 415 kts 165°
2026-04-22 07:30 33.01636 121.98922 26475 ft 414 kts 164°
2026-04-22 07:30 32.98972 122.00208 26476 ft 413 kts 164°
2026-04-22 07:30 32.96304 122.01495 26471 ft 413 kts 164°
2026-04-22 07:31 32.93642 122.02777 26466 ft 413 kts 164°
2026-04-22 07:31 32.90979 122.04060 26462 ft 413 kts 164°
2026-04-22 07:31 32.88312 122.05343 26470 ft 413 kts 164°
2026-04-22 07:31 32.85653 122.06622 26465 ft 413 kts 164°
2026-04-22 07:32 32.82985 122.07903 26461 ft 413 kts 165°
2026-04-22 07:32 32.81226 122.08748 26460 ft 413 kts 165°
2026-04-22 07:32 32.77664 122.10458 26449 ft 412 kts 165°
2026-04-22 07:32 32.75900 122.11305 26447 ft 412 kts 165°
2026-04-22 07:33 32.73241 122.12581 26458 ft 413 kts 165°
2026-04-22 07:33 32.70578 122.13856 26459 ft 413 kts 165°
2026-04-22 07:33 32.67913 122.15132 26459 ft 413 kts 165°
2026-04-22 07:33 32.65249 122.16407 26451 ft 413 kts 165°
2026-04-22 07:34 32.62584 122.17681 26448 ft 413 kts 165°
2026-04-22 07:34 32.59924 122.18952 26448 ft 413 kts 165°
2026-04-22 07:34 32.57255 122.20227 26448 ft 413 kts 165°
2026-04-22 07:34 32.54592 122.21498 26445 ft 413 kts 165°
2026-04-22 07:35 32.51928 122.22769 26445 ft 413 kts 165°
2026-04-22 07:35 32.49262 122.24040 26439 ft 413 kts 165°
2026-04-22 07:35 32.46596 122.25310 26445 ft 413 kts 165°
2026-04-22 07:35 32.43925 122.26582 26437 ft 413 kts 165°
2026-04-22 07:36 32.41261 122.27849 26437 ft 413 kts 165°
2026-04-22 07:36 32.38593 122.29118 26437 ft 413 kts 165°
2026-04-22 07:36 32.35921 122.30388 26434 ft 413 kts 165°
2026-04-22 07:36 32.33252 122.31655 26432 ft 413 kts 165°
2026-04-22 07:37 32.30581 122.32923 26432 ft 413 kts 165°
2026-04-22 07:37 32.27914 122.34188 26432 ft 413 kts 165°
2026-04-22 07:37 32.25240 122.35455 26428 ft 414 kts 165°
2026-04-22 07:37 32.22571 122.36719 26414 ft 414 kts 165°
2026-04-22 07:38 32.19887 122.37989 26425 ft 415 kts 165°
2026-04-22 07:38 32.17207 122.39257 26426 ft 415 kts 165°
2026-04-22 07:38 32.14524 122.40525 26423 ft 415 kts 165°
2026-04-22 07:38 32.11846 122.41790 26418 ft 415 kts 165°
2026-04-22 07:39 32.09157 122.43061 26418 ft 415 kts 165°
2026-04-22 07:39 32.06477 122.44325 26415 ft 415 kts 165°
2026-04-22 07:39 32.03790 122.45593 26415 ft 415 kts 165°
2026-04-22 07:39 32.01145 122.46839 26412 ft 415 kts 165°
2026-04-22 07:40 31.98462 122.48103 26411 ft 415 kts 165°
2026-04-22 07:40 31.95742 122.49383 26412 ft 415 kts 165°
2026-04-22 07:40 31.93059 122.50645 26412 ft 415 kts 165°
2026-04-22 07:40 31.90376 122.51906 26401 ft 415 kts 165°
2026-04-22 07:41 31.87689 122.53169 26404 ft 415 kts 165°
2026-04-22 07:41 31.85048 122.54409 26404 ft 415 kts 165°
2026-04-22 07:41 31.82361 122.55670 26404 ft 415 kts 165°
2026-04-22 07:41 31.79679 122.56928 26404 ft 415 kts 165°
2026-04-22 07:42 31.76994 122.58186 26400 ft 415 kts 165°
2026-04-22 07:42 31.74274 122.59460 26401 ft 415 kts 165°
2026-04-22 07:42 31.71615 122.60625 26400 ft 411 kts 171°
2026-04-22 07:42 31.68850 122.61276 26393 ft 400 kts 182°
2026-04-22 07:43 31.66109 122.61241 26400 ft 389 kts 194°
2026-04-22 07:43 31.63524 122.60504 26399 ft 379 kts 207°
2026-04-22 07:43 31.61200 122.59129 26398 ft 372 kts 217°
2026-04-22 07:43 31.59049 122.57447 26397 ft 371 kts 219°
2026-04-22 07:44 31.56968 122.55658 26393 ft 371 kts 221°
2026-04-22 07:44 31.54920 122.53823 26394 ft 371 kts 221°
2026-04-22 07:44 31.52903 122.52001 26390 ft 371 kts 221°
2026-04-22 07:44 31.50856 122.50162 26394 ft 371 kts 221°
2026-04-22 07:45 31.48805 122.48339 26387 ft 370 kts 221°
2026-04-22 07:45 31.46693 122.46707 26393 ft 372 kts 214°
2026-04-22 07:45 31.44303 122.45494 26390 ft 379 kts 203°
2026-04-22 07:45 31.41700 122.44853 26391 ft 386 kts 194°
2026-04-22 07:46 31.39014 122.44525 26391 ft 389 kts 192°
2026-04-22 07:46 31.36304 122.44332 26388 ft 391 kts 190°
2026-04-22 07:46 31.33588 122.44203 26388 ft 392 kts 189°
2026-04-22 07:46 31.30859 122.44091 26388 ft 392 kts 189°
2026-04-22 07:47 31.28134 122.43977 26365 ft 392 kts 190°
2026-04-22 07:47 31.25408 122.43852 26388 ft 392 kts 190°
2026-04-22 07:47 31.22693 122.43715 26389 ft 392 kts 190°
2026-04-22 07:47 31.19990 122.43570 26386 ft 391 kts 190°
2026-04-22 07:48 31.17272 122.43419 26388 ft 391 kts 190°
2026-04-22 07:48 31.14549 122.43266 26385 ft 391 kts 190°
2026-04-22 07:48 31.11837 122.43112 26386 ft 391 kts 190°
2026-04-22 07:48 31.09112 122.42958 26390 ft 391 kts 190°
2026-04-22 07:49 31.06394 122.42804 26385 ft 391 kts 190°
2026-04-22 07:49 31.03672 122.42650 26374 ft 391 kts 190°
2026-04-22 07:49 31.00955 122.42497 26383 ft 391 kts 190°
2026-04-22 07:49 30.98233 122.42344 26388 ft 391 kts 190°
2026-04-22 07:50 30.95518 122.42191 26387 ft 391 kts 190°
2026-04-22 07:50 30.92794 122.42036 26387 ft 391 kts 190°
2026-04-22 07:50 30.90075 122.41882 26387 ft 391 kts 190°
2026-04-22 07:50 30.87358 122.41728 26388 ft 391 kts 190°
2026-04-22 07:51 30.84637 122.41573 26390 ft 391 kts 190°
2026-04-22 07:51 30.81916 122.41419 26388 ft 391 kts 190°
2026-04-22 07:51 30.79203 122.41264 26383 ft 392 kts 189°
2026-04-22 07:51 30.76468 122.41108 26388 ft 393 kts 189°
2026-04-22 07:52 30.73729 122.40953 26388 ft 394 kts 189°
2026-04-22 07:52 30.70995 122.40798 26387 ft 394 kts 189°
2026-04-22 07:52 30.68258 122.40644 26388 ft 394 kts 189°
2026-04-22 07:52 30.65519 122.40491 26388 ft 394 kts 189°
2026-04-22 07:53 30.62781 122.40337 26388 ft 394 kts 189°
2026-04-22 07:53 30.60040 122.40183 26390 ft 394 kts 189°
2026-04-22 07:53 30.57304 122.40031 26379 ft 394 kts 189°
2026-04-22 07:53 30.54592 122.39885 26390 ft 396 kts 189°
2026-04-22 07:54 30.51808 122.39737 26388 ft 396 kts 189°
2026-04-22 07:54 30.49047 122.39593 26389 ft 397 kts 189°
2026-04-22 07:54 30.46329 122.39451 26388 ft 397 kts 189°
2026-04-22 07:54 30.43567 122.39307 26388 ft 397 kts 189°
2026-04-22 07:55 30.40810 122.39163 26386 ft 397 kts 189°
2026-04-22 07:55 30.38056 122.39019 26386 ft 397 kts 189°
2026-04-22 07:55 30.35298 122.38875 26387 ft 397 kts 189°
2026-04-22 07:55 30.32541 122.38730 26384 ft 397 kts 189°
2026-04-22 07:56 30.29776 122.38584 26388 ft 398 kts 189°
2026-04-22 07:56 30.27006 122.38439 26386 ft 398 kts 189°
2026-04-22 07:56 30.24243 122.38289 26387 ft 398 kts 189°
2026-04-22 07:56 30.21471 122.38125 26383 ft 398 kts 189°
2026-04-22 07:57 30.18708 122.37951 26384 ft 398 kts 189°
2026-04-22 07:57 30.15936 122.37774 26384 ft 398 kts 189°
2026-04-22 07:57 30.13169 122.37596 26382 ft 398 kts 189°
2026-04-22 07:57 30.10403 122.37418 26360 ft 398 kts 189°
2026-04-22 07:58 30.07633 122.37242 26380 ft 399 kts 189°
2026-04-22 07:58 30.04860 122.37066 26383 ft 400 kts 189°
2026-04-22 07:58 30.02083 122.36892 26382 ft 400 kts 189°
2026-04-22 07:58 29.99299 122.36717 26382 ft 400 kts 189°
2026-04-22 07:59 29.96521 122.36544 26380 ft 400 kts 189°
2026-04-22 07:59 29.93726 122.36502 26381 ft 405 kts 182°
2026-04-22 07:59 29.90911 122.36906 26382 ft 409 kts 177°
2026-04-22 07:59 29.88101 122.37458 26381 ft 410 kts 175°
2026-04-22 08:00 29.85294 122.38088 26376 ft 412 kts 175°
2026-04-22 08:00 29.82480 122.38756 26384 ft 414 kts 174°
2026-04-22 08:00 29.79657 122.39438 26385 ft 415 kts 174°
2026-04-22 08:00 29.76830 122.40120 26386 ft 415 kts 174°
2026-04-22 08:01 29.74003 122.40795 26391 ft 415 kts 174°
2026-04-22 08:01 29.71176 122.41464 26388 ft 415 kts 174°
2026-04-22 08:01 29.68354 122.42126 26389 ft 415 kts 175°
2026-04-22 08:01 29.65523 122.42787 26391 ft 415 kts 175°
2026-04-22 08:02 29.62697 122.43444 26389 ft 415 kts 175°
2026-04-22 08:02 29.59860 122.44103 26388 ft 415 kts 175°
2026-04-22 08:02 29.57037 122.44758 26390 ft 415 kts 175°
2026-04-22 08:02 29.54206 122.45415 26394 ft 415 kts 175°
2026-04-22 08:03 29.51376 122.46072 26395 ft 415 kts 175°
2026-04-22 08:03 29.48552 122.46727 26398 ft 415 kts 175°
2026-04-22 08:03 29.45725 122.47383 26396 ft 415 kts 175°
2026-04-22 08:03 29.42898 122.48038 26397 ft 415 kts 175°
2026-04-22 08:04 29.40071 122.48693 26394 ft 415 kts 175°
2026-04-22 08:04 29.37239 122.49348 26394 ft 414 kts 175°
2026-04-22 08:04 29.34413 122.50002 26371 ft 415 kts 175°
2026-04-22 08:04 29.31583 122.50657 26391 ft 415 kts 175°
2026-04-22 08:05 29.28746 122.51312 26388 ft 416 kts 175°
2026-04-22 08:05 29.25912 122.51967 26391 ft 416 kts 175°
2026-04-22 08:05 29.23114 122.52482 26392 ft 410 kts 182°
2026-04-22 08:05 29.20297 122.52432 26388 ft 401 kts 194°
2026-04-22 08:06 29.17619 122.51715 26392 ft 391 kts 206°
2026-04-22 08:06 29.15123 122.50530 26394 ft 388 kts 210°
2026-04-22 08:06 29.12695 122.49191 26396 ft 387 kts 212°
2026-04-22 08:06 29.10308 122.47777 26389 ft 386 kts 213°
2026-04-22 08:07 29.07929 122.46329 26391 ft 386 kts 213°
2026-04-22 08:07 29.05557 122.44883 26389 ft 387 kts 213°
2026-04-22 08:07 29.03179 122.43446 26390 ft 387 kts 213°
2026-04-22 08:07 29.00797 122.42021 26389 ft 387 kts 213°
2026-04-22 08:08 28.98406 122.40603 26387 ft 387 kts 213°
2026-04-22 08:08 28.96014 122.39193 26391 ft 387 kts 212°
2026-04-22 08:08 28.93618 122.37786 26391 ft 387 kts 212°
2026-04-22 08:08 28.91223 122.36381 26391 ft 387 kts 212°
2026-04-22 08:09 28.88828 122.34977 26375 ft 387 kts 213°
2026-04-22 08:09 28.86429 122.33570 26388 ft 389 kts 212°
2026-04-22 08:09 28.84023 122.32161 26387 ft 389 kts 212°
2026-04-22 08:09 28.81614 122.30749 26388 ft 389 kts 212°
2026-04-22 08:10 28.79205 122.29338 26388 ft 389 kts 212°
2026-04-22 08:10 28.76797 122.27927 26390 ft 389 kts 212°
2026-04-22 08:10 28.74383 122.26514 26391 ft 389 kts 212°
2026-04-22 08:10 28.71979 122.25108 26390 ft 389 kts 212°
2026-04-22 08:11 28.69572 122.23701 26389 ft 389 kts 212°
2026-04-22 08:11 28.67162 122.22293 26379 ft 389 kts 212°
2026-04-22 08:11 28.64753 122.20885 26386 ft 390 kts 212°
2026-04-22 08:11 28.62333 122.19472 26388 ft 391 kts 212°
2026-04-22 08:12 28.59911 122.18058 26386 ft 391 kts 212°
2026-04-22 08:12 28.57490 122.16647 26387 ft 391 kts 212°
2026-04-22 08:12 28.55068 122.15236 26388 ft 391 kts 212°
2026-04-22 08:12 28.52650 122.13828 26388 ft 391 kts 212°
2026-04-22 08:13 28.50226 122.12416 26388 ft 391 kts 212°
2026-04-22 08:13 28.47806 122.11008 26388 ft 391 kts 212°
2026-04-22 08:13 28.45413 122.09617 26380 ft 391 kts 212°
2026-04-22 08:13 28.42955 122.08187 26388 ft 392 kts 212°
2026-04-22 08:14 28.40526 122.06777 26394 ft 392 kts 213°
2026-04-22 08:14 28.38131 122.05388 26388 ft 391 kts 213°
2026-04-22 08:14 28.35716 122.03988 26389 ft 390 kts 213°
2026-04-22 08:14 28.33304 122.02588 26386 ft 389 kts 213°
2026-04-22 08:15 28.30888 122.01187 26386 ft 389 kts 213°
2026-04-22 08:15 28.28476 121.99787 26387 ft 390 kts 213°
2026-04-22 08:15 28.26063 121.98389 26387 ft 390 kts 213°
2026-04-22 08:15 28.23648 121.96990 26376 ft 390 kts 212°
2026-04-22 08:16 28.21227 121.95588 26387 ft 392 kts 212°
2026-04-22 08:16 28.18799 121.94183 26391 ft 393 kts 212°
2026-04-22 08:16 28.16367 121.92777 26389 ft 393 kts 212°
2026-04-22 08:16 28.13929 121.91369 26390 ft 393 kts 212°
2026-04-22 08:17 28.11491 121.89962 26392 ft 393 kts 212°
2026-04-22 08:17 28.09056 121.88558 26390 ft 393 kts 212°
2026-04-22 08:17 28.06618 121.87152 26390 ft 393 kts 212°
2026-04-22 08:17 28.04185 121.85750 26389 ft 393 kts 212°
2026-04-22 08:18 28.01747 121.84344 26379 ft 393 kts 211°
2026-04-22 08:18 27.99316 121.82924 26384 ft 394 kts 212°
2026-04-22 08:18 27.96897 121.81458 26390 ft 395 kts 212°
2026-04-22 08:18 27.94486 121.79967 26393 ft 395 kts 213°
2026-04-22 08:19 27.92082 121.78470 26393 ft 394 kts 213°
2026-04-22 08:19 27.89680 121.76971 26387 ft 394 kts 213°
2026-04-22 08:19 27.87284 121.75478 26390 ft 394 kts 213°
2026-04-22 08:19 27.85664 121.74472 26389 ft 394 kts 213°
2026-04-22 08:20 27.83260 121.72982 26395 ft 394 kts 213°
2026-04-22 08:20 27.80892 121.71517 26396 ft 394 kts 213°
2026-04-22 08:20 27.78486 121.70031 26387 ft 395 kts 213°
2026-04-22 08:20 27.76069 121.68540 26396 ft 396 kts 213°
2026-04-22 08:21 27.73646 121.67046 26388 ft 397 kts 213°
2026-04-22 08:21 27.71227 121.65556 26393 ft 397 kts 213°
2026-04-22 08:21 27.68804 121.64064 26385 ft 397 kts 212°
2026-04-22 08:21 27.66380 121.62572 26386 ft 397 kts 212°
2026-04-22 08:22 27.63957 121.61082 26392 ft 397 kts 213°
2026-04-22 08:22 27.61532 121.59591 26389 ft 397 kts 212°
2026-04-22 08:22 27.59106 121.58100 26392 ft 397 kts 212°
2026-04-22 08:22 27.56680 121.56613 26401 ft 397 kts 213°
2026-04-22 08:23 27.54251 121.55127 26399 ft 397 kts 213°
2026-04-22 08:23 27.51826 121.53646 26391 ft 397 kts 213°
2026-04-22 08:23 27.49398 121.52164 26401 ft 397 kts 213°
2026-04-22 08:23 27.46967 121.50682 26402 ft 398 kts 213°
2026-04-22 08:24 27.44534 121.49198 26384 ft 398 kts 213°
2026-04-22 08:24 27.42095 121.47711 26385 ft 398 kts 213°
2026-04-22 08:24 27.39659 121.46227 26398 ft 398 kts 213°
2026-04-22 08:24 27.37217 121.44740 26399 ft 399 kts 213°
2026-04-22 08:25 27.34781 121.43257 26387 ft 399 kts 213°
2026-04-22 08:25 27.32340 121.41772 26400 ft 399 kts 213°
2026-04-22 08:25 27.29907 121.40292 26386 ft 399 kts 213°
2026-04-22 08:25 27.27462 121.38806 26385 ft 399 kts 213°
2026-04-22 08:26 27.25026 121.37327 26386 ft 399 kts 213°
2026-04-22 08:26 27.22586 121.35845 26392 ft 399 kts 213°
2026-04-22 08:26 27.20143 121.34362 26387 ft 399 kts 213°
2026-04-22 08:26 27.17702 121.32881 26395 ft 399 kts 213°
2026-04-22 08:27 27.15264 121.31402 26383 ft 399 kts 213°
2026-04-22 08:27 27.12823 121.29922 26392 ft 398 kts 213°
2026-04-22 08:27 27.10384 121.28445 26390 ft 398 kts 213°
2026-04-22 08:27 27.07948 121.26970 26390 ft 398 kts 213°
2026-04-22 08:28 27.05518 121.25499 26384 ft 397 kts 213°
2026-04-22 08:28 27.03085 121.24027 26396 ft 397 kts 213°
2026-04-22 08:28 27.00647 121.22552 26391 ft 398 kts 213°
2026-04-22 08:28 26.98205 121.21075 26380 ft 399 kts 213°
2026-04-22 08:29 26.95760 121.19598 26395 ft 399 kts 213°
2026-04-22 08:29 26.93319 121.18124 26379 ft 399 kts 213°
2026-04-22 08:29 26.90875 121.16650 26377 ft 399 kts 213°
2026-04-22 08:29 26.88435 121.15179 26385 ft 398 kts 213°
2026-04-22 08:30 26.85999 121.13711 26388 ft 397 kts 213°
2026-04-22 08:30 26.83566 121.12245 26388 ft 397 kts 213°
2026-04-22 08:30 26.81134 121.10780 26389 ft 397 kts 213°
2026-04-22 08:30 26.78698 121.09313 26388 ft 397 kts 213°
2026-04-22 08:31 26.76270 121.07852 26390 ft 397 kts 213°
2026-04-22 08:31 26.73836 121.06387 26385 ft 397 kts 213°
2026-04-22 08:31 26.68972 121.03457 26386 ft 397 kts 213°
2026-04-22 08:32 26.66543 121.01995 26384 ft 397 kts 213°
2026-04-22 08:32 26.64107 121.00528 26385 ft 397 kts 213°
2026-04-22 08:32 26.61676 120.99065 26385 ft 397 kts 213°
2026-04-22 08:32 26.59240 120.97600 26388 ft 397 kts 213°
2026-04-22 08:33 26.56809 120.96139 26389 ft 397 kts 213°
2026-04-22 08:33 26.54375 120.94677 26386 ft 397 kts 213°
2026-04-22 08:33 26.51977 120.93239 26385 ft 396 kts 213°
2026-04-22 08:33 26.49517 120.91763 26385 ft 396 kts 213°
2026-04-22 08:34 26.47129 120.90331 26384 ft 396 kts 213°
2026-04-22 08:34 26.44704 120.88877 26380 ft 396 kts 213°
2026-04-22 08:34 26.42282 120.87426 26385 ft 395 kts 213°
2026-04-22 08:34 26.39856 120.85972 26388 ft 395 kts 213°
2026-04-22 08:35 26.37433 120.84522 26387 ft 395 kts 213°
2026-04-22 08:35 26.35013 120.83074 26388 ft 395 kts 213°
2026-04-22 08:35 26.32600 120.81630 26388 ft 395 kts 213°
2026-04-22 08:35 26.30161 120.80173 26388 ft 395 kts 213°
2026-04-22 08:36 26.27737 120.78724 26390 ft 395 kts 213°
2026-04-22 08:36 26.25315 120.77278 26390 ft 395 kts 213°
2026-04-22 08:36 26.22892 120.75832 26387 ft 395 kts 213°
2026-04-22 08:36 26.20464 120.74387 26393 ft 396 kts 214°
2026-04-22 08:37 26.18039 120.72942 26389 ft 396 kts 214°
2026-04-22 08:37 26.15608 120.71492 26387 ft 396 kts 214°
2026-04-22 08:37 26.13174 120.70040 26390 ft 397 kts 214°
2026-04-22 08:37 26.10743 120.68592 26387 ft 397 kts 214°
2026-04-22 08:38 26.08312 120.67144 26386 ft 397 kts 214°
2026-04-22 08:38 26.05875 120.65694 26389 ft 397 kts 214°
2026-04-22 08:38 26.03443 120.64248 26389 ft 397 kts 214°
2026-04-22 08:38 26.01010 120.62801 26389 ft 397 kts 214°
2026-04-22 08:39 25.98580 120.61358 26375 ft 396 kts 214°
2026-04-22 08:39 25.96144 120.59911 26384 ft 396 kts 214°
2026-04-22 08:39 25.93716 120.58471 26385 ft 396 kts 214°
2026-04-22 08:39 25.91288 120.57031 26385 ft 396 kts 214°
2026-04-22 08:40 25.88858 120.55590 26388 ft 396 kts 214°
2026-04-22 08:40 25.86431 120.54151 26388 ft 396 kts 214°
2026-04-22 08:40 25.83998 120.52709 26388 ft 396 kts 214°
2026-04-22 08:40 25.81571 120.51272 26388 ft 396 kts 214°
2026-04-22 08:41 25.79138 120.49833 26386 ft 396 kts 214°
2026-04-22 08:41 25.76707 120.48394 26385 ft 396 kts 214°
2026-04-22 08:41 25.74279 120.46959 26384 ft 396 kts 213°
2026-04-22 08:41 25.71845 120.45520 26388 ft 396 kts 213°
2026-04-22 08:42 25.69413 120.44084 26389 ft 396 kts 213°
2026-04-22 08:42 25.66978 120.42647 26388 ft 396 kts 213°
2026-04-22 08:42 25.64554 120.41217 26390 ft 396 kts 213°
2026-04-22 08:42 25.62206 120.39635 26398 ft 392 kts 220°
2026-04-22 08:43 25.59984 120.37906 26391 ft 391 kts 221°
2026-04-22 08:43 25.57793 120.36132 26390 ft 390 kts 221°
2026-04-22 08:43 25.55623 120.34334 26390 ft 389 kts 222°
2026-04-22 08:43 25.53460 120.32525 26390 ft 389 kts 222°
2026-04-22 08:44 25.51304 120.30718 26384 ft 390 kts 222°
2026-04-22 08:44 25.49137 120.28903 26390 ft 390 kts 222°
2026-04-22 08:44 25.46969 120.27093 26391 ft 391 kts 222°
2026-04-22 08:44 25.44796 120.25284 26391 ft 391 kts 222°
2026-04-22 08:45 25.42622 120.23479 26389 ft 391 kts 222°
2026-04-22 08:45 25.40444 120.21672 26389 ft 391 kts 222°
2026-04-22 08:45 25.38267 120.19868 26394 ft 391 kts 222°
2026-04-22 08:45 25.36088 120.18064 26392 ft 391 kts 222°
2026-04-22 08:46 25.33911 120.16262 26403 ft 391 kts 222°
2026-04-22 08:46 25.31735 120.14461 26395 ft 391 kts 222°
2026-04-22 08:46 25.29560 120.12661 26394 ft 391 kts 221°
2026-04-22 08:46 25.27378 120.10856 26395 ft 392 kts 222°
2026-04-22 08:47 25.25192 120.09048 26391 ft 393 kts 222°
2026-04-22 08:47 25.23002 120.07238 26402 ft 393 kts 222°
2026-04-22 08:47 25.20815 120.05432 26401 ft 393 kts 222°
2026-04-22 08:47 25.18619 120.03620 26397 ft 393 kts 221°
2026-04-22 08:48 25.16452 120.01833 26397 ft 393 kts 222°
2026-04-22 08:48 25.14266 120.00030 26403 ft 393 kts 221°
2026-04-22 08:48 25.12072 119.98221 26399 ft 393 kts 221°
2026-04-22 08:48 25.09883 119.96418 26399 ft 393 kts 221°
2026-04-22 08:49 25.07691 119.94612 26401 ft 393 kts 221°
2026-04-22 08:49 25.05499 119.92807 26395 ft 393 kts 221°
2026-04-22 08:49 25.03336 119.91028 26397 ft 393 kts 221°
2026-04-22 08:49 25.01158 119.89204 26409 ft 391 kts 225°
2026-04-22 08:50 24.99187 119.87107 26407 ft 387 kts 231°
2026-04-22 08:50 24.97387 119.84955 26400 ft 387 kts 232°
2026-04-22 08:50 24.95612 119.82734 26410 ft 386 kts 233°
2026-04-22 08:50 24.93837 119.80455 26404 ft 387 kts 234°
2026-04-22 08:51 24.92094 119.78197 26399 ft 387 kts 234°
2026-04-22 08:51 24.90348 119.75931 26405 ft 388 kts 234°
2026-04-22 08:51 24.88598 119.73669 26401 ft 388 kts 233°
2026-04-22 08:51 24.86869 119.71442 26404 ft 388 kts 233°
2026-04-22 08:52 24.85165 119.69254 26398 ft 388 kts 233°
2026-04-22 08:52 24.83351 119.66930 26401 ft 389 kts 233°
2026-04-22 08:52 24.81560 119.64639 26402 ft 390 kts 233°
2026-04-22 08:52 24.79816 119.62409 26398 ft 390 kts 233°
2026-04-22 08:53 24.78045 119.60148 26405 ft 390 kts 233°
2026-04-22 08:53 24.76278 119.57892 26406 ft 390 kts 233°
2026-04-22 08:53 24.74510 119.55635 26403 ft 390 kts 233°
2026-04-22 08:53 24.72740 119.53376 26403 ft 390 kts 233°
2026-04-22 08:54 24.70967 119.51115 26399 ft 391 kts 233°
2026-04-22 08:54 24.69192 119.48851 26402 ft 392 kts 232°
2026-04-22 08:54 24.67410 119.46580 26403 ft 392 kts 232°
2026-04-22 08:54 24.65629 119.44312 26402 ft 392 kts 232°
2026-04-22 08:55 24.63852 119.42049 26391 ft 392 kts 232°
2026-04-22 08:55 24.62077 119.39791 26398 ft 392 kts 232°
2026-04-22 08:55 24.60282 119.37508 26401 ft 392 kts 232°
2026-04-22 08:55 24.58496 119.35238 26404 ft 393 kts 232°
2026-04-22 08:56 24.56710 119.32968 26406 ft 392 kts 232°
2026-04-22 08:56 24.54927 119.30703 26407 ft 392 kts 232°
2026-04-22 08:56 24.53147 119.28445 26408 ft 392 kts 232°
2026-04-22 08:56 24.51356 119.26172 26408 ft 393 kts 232°
2026-04-22 08:57 24.49574 119.23911 26405 ft 393 kts 232°
2026-04-22 08:57 24.47777 119.21633 26401 ft 393 kts 232°
2026-04-22 08:57 24.45990 119.19369 26401 ft 394 kts 232°
2026-04-22 08:57 24.44198 119.17099 26401 ft 394 kts 232°
2026-04-22 08:58 24.42403 119.14827 26394 ft 394 kts 232°
2026-04-22 08:58 24.40629 119.12582 26399 ft 393 kts 232°
2026-04-22 08:58 24.38839 119.10319 26404 ft 393 kts 232°
2026-04-22 08:58 24.37021 119.08020 26404 ft 393 kts 232°
2026-04-22 08:59 24.35224 119.05751 26404 ft 393 kts 232°
2026-04-22 08:59 24.33432 119.03487 26407 ft 393 kts 232°
2026-04-22 08:59 24.31639 119.01224 26401 ft 393 kts 232°
2026-04-22 08:59 24.29844 118.98960 26401 ft 393 kts 232°
2026-04-22 09:00 24.28050 118.96696 26402 ft 393 kts 232°
2026-04-22 09:00 24.26283 118.94466 26407 ft 393 kts 231°
2026-04-22 09:00 24.24457 118.92167 26408 ft 394 kts 231°
2026-04-22 09:00 24.22683 118.89933 26407 ft 394 kts 231°
2026-04-22 09:01 24.20883 118.87668 26399 ft 394 kts 231°
2026-04-22 09:01 24.19059 118.85373 26395 ft 394 kts 231°
2026-04-22 09:01 24.17282 118.83139 26398 ft 394 kts 231°
2026-04-22 09:01 24.15491 118.80887 26401 ft 394 kts 231°
2026-04-22 09:02 24.13684 118.78618 26401 ft 394 kts 231°
2026-04-22 09:02 24.11885 118.76358 26398 ft 394 kts 231°
2026-04-22 09:02 24.10087 118.74101 26398 ft 394 kts 231°
2026-04-22 09:02 24.08284 118.71839 26398 ft 394 kts 231°
2026-04-22 09:03 24.06486 118.69585 26407 ft 394 kts 231°
2026-04-22 09:03 24.04684 118.67326 26407 ft 394 kts 231°
2026-04-22 09:03 24.02886 118.65073 26405 ft 394 kts 231°
2026-04-22 09:03 24.01079 118.62811 26404 ft 395 kts 231°
2026-04-22 09:04 23.99851 118.61274 26406 ft 396 kts 231°
2026-04-22 09:04 23.97463 118.58285 26405 ft 396 kts 231°
2026-04-22 09:04 23.96257 118.56777 26426 ft 396 kts 231°
2026-04-22 09:04 23.93837 118.53751 26403 ft 395 kts 231°
2026-04-22 09:05 23.92637 118.52251 26400 ft 395 kts 231°
2026-04-22 09:05 23.90828 118.49991 26418 ft 395 kts 231°
2026-04-22 09:05 23.89023 118.47738 26405 ft 395 kts 231°
2026-04-22 09:05 23.87218 118.45486 26423 ft 395 kts 231°
2026-04-22 09:06 23.85378 118.43198 26409 ft 395 kts 231°
2026-04-22 09:06 23.83555 118.40945 26405 ft 395 kts 231°
2026-04-22 09:06 23.81756 118.38728 26406 ft 395 kts 231°
2026-04-22 09:06 23.79943 118.36497 26411 ft 395 kts 231°
2026-04-22 09:07 23.78115 118.34248 26411 ft 395 kts 231°
2026-04-22 09:07 23.76288 118.32002 26411 ft 396 kts 231°
2026-04-22 09:07 23.74461 118.29755 26417 ft 396 kts 231°
2026-04-22 09:07 23.72636 118.27512 26417 ft 395 kts 231°
2026-04-22 09:08 23.70815 118.25273 26422 ft 395 kts 231°
2026-04-22 09:08 23.68987 118.23026 26404 ft 395 kts 231°
2026-04-22 09:08 23.67159 118.20781 26416 ft 395 kts 231°
2026-04-22 09:08 23.65331 118.18536 26419 ft 395 kts 231°
2026-04-22 09:09 23.63509 118.16300 26400 ft 395 kts 231°
2026-04-22 09:09 23.61679 118.14056 26418 ft 395 kts 231°
2026-04-22 09:09 23.59855 118.11820 26423 ft 395 kts 231°
2026-04-22 09:09 23.58025 118.09576 26422 ft 395 kts 231°
2026-04-22 09:10 23.56196 118.07336 26407 ft 395 kts 231°
2026-04-22 09:10 23.54370 118.05101 26422 ft 395 kts 231°
2026-04-22 09:10 23.52542 118.02864 26418 ft 395 kts 231°
2026-04-22 09:10 23.50713 118.00627 26420 ft 396 kts 231°
2026-04-22 09:11 23.48882 117.98387 26422 ft 396 kts 231°
2026-04-22 09:11 23.47048 117.96146 26414 ft 396 kts 231°
2026-04-22 09:11 23.45214 117.93905 26422 ft 396 kts 231°
2026-04-22 09:11 23.43380 117.91665 26425 ft 396 kts 231°
2026-04-22 09:12 23.41544 117.89425 26425 ft 396 kts 231°
2026-04-22 09:12 23.39706 117.87183 26424 ft 396 kts 231°
2026-04-22 09:12 23.37871 117.84945 26424 ft 396 kts 231°
2026-04-22 09:12 23.36034 117.82707 26418 ft 396 kts 231°
2026-04-22 09:13 23.34199 117.80470 26420 ft 396 kts 231°
2026-04-22 09:13 23.32363 117.78235 26417 ft 396 kts 231°
2026-04-22 09:13 23.30525 117.75998 26421 ft 396 kts 231°
2026-04-22 09:13 23.28686 117.73761 26417 ft 397 kts 231°
2026-04-22 09:14 23.26847 117.71524 26424 ft 397 kts 231°
2026-04-22 09:14 23.25005 117.69285 26428 ft 397 kts 231°
2026-04-22 09:14 23.23162 117.67046 26426 ft 397 kts 231°
2026-04-22 09:14 23.21321 117.64811 26427 ft 397 kts 231°
2026-04-22 09:15 23.19480 117.62576 26419 ft 397 kts 231°
2026-04-22 09:15 23.17635 117.60337 26426 ft 397 kts 231°
2026-04-22 09:15 23.15793 117.58103 26425 ft 397 kts 231°
2026-04-22 09:15 23.13948 117.55867 26426 ft 397 kts 231°
2026-04-22 09:16 23.12104 117.53632 26427 ft 397 kts 231°
2026-04-22 09:16 23.10259 117.51398 26423 ft 397 kts 231°
2026-04-22 09:16 23.08439 117.49184 26429 ft 397 kts 231°
2026-04-22 09:16 23.06592 117.46907 26416 ft 397 kts 231°
2026-04-22 09:17 23.04772 117.44651 26429 ft 398 kts 232°
2026-04-22 09:17 23.02976 117.42419 26427 ft 398 kts 232°
2026-04-22 09:17 23.01128 117.40122 26433 ft 399 kts 232°
2026-04-22 09:17 22.99306 117.37862 26431 ft 399 kts 232°
2026-04-22 09:18 22.97502 117.35623 26425 ft 399 kts 232°
2026-04-22 09:18 22.95676 117.33357 26430 ft 399 kts 232°
2026-04-22 09:18 22.93911 117.31054 26427 ft 397 kts 235°
2026-04-22 09:18 22.92241 117.28666 26429 ft 397 kts 236°
2026-04-22 09:19 22.90595 117.26259 26428 ft 397 kts 236°
2026-04-22 09:19 22.88967 117.23846 26427 ft 397 kts 237°
2026-04-22 09:19 22.87346 117.21429 26428 ft 397 kts 237°
2026-04-22 09:19 22.85723 117.19005 26431 ft 397 kts 237°
2026-04-22 09:20 22.84099 117.16583 26428 ft 397 kts 237°
2026-04-22 09:20 22.82475 117.14164 26427 ft 397 kts 237°
2026-04-22 09:20 22.80847 117.11745 26429 ft 397 kts 237°
2026-04-22 09:20 22.79224 117.09334 26432 ft 397 kts 237°
2026-04-22 09:21 22.77602 117.06929 26433 ft 397 kts 237°
2026-04-22 09:21 22.75962 117.04498 26431 ft 397 kts 237°
2026-04-22 09:21 22.74383 117.02046 26432 ft 396 kts 242°
2026-04-22 09:21 22.73140 116.99401 26432 ft 393 kts 248°
2026-04-22 09:22 22.72040 116.96693 26427 ft 393 kts 249°
2026-04-22 09:22 22.71000 116.93955 26428 ft 393 kts 250°
2026-04-22 09:22 22.69993 116.91203 26429 ft 393 kts 250°
2026-04-22 09:22 22.68998 116.88451 26429 ft 393 kts 251°
2026-04-22 09:23 22.68002 116.85694 26432 ft 393 kts 251°
2026-04-22 09:23 22.67001 116.82939 26427 ft 393 kts 250°
2026-04-22 09:23 22.66001 116.80203 26429 ft 393 kts 250°
2026-04-22 09:23 22.64987 116.77442 26427 ft 393 kts 250°
2026-04-22 09:24 22.63975 116.74693 26425 ft 393 kts 250°
2026-04-22 09:24 22.62963 116.71952 26421 ft 393 kts 250°
2026-04-22 09:24 22.61947 116.69203 26425 ft 394 kts 250°
2026-04-22 09:24 22.60927 116.66445 26427 ft 394 kts 250°
2026-04-22 09:25 22.59911 116.63697 26425 ft 394 kts 250°
2026-04-22 09:25 22.58892 116.60944 26426 ft 394 kts 250°
2026-04-22 09:25 22.57874 116.58194 26427 ft 394 kts 250°
2026-04-22 09:25 22.56855 116.55444 26428 ft 394 kts 250°
2026-04-22 09:26 22.55835 116.52694 26425 ft 393 kts 250°
2026-04-22 09:26 22.54817 116.49950 26429 ft 393 kts 250°
2026-04-22 09:26 22.53800 116.47209 26429 ft 393 kts 250°
2026-04-22 09:26 22.52779 116.44458 26429 ft 393 kts 250°
2026-04-22 09:27 22.51761 116.41718 26429 ft 393 kts 250°
2026-04-22 09:27 22.50741 116.38973 26429 ft 393 kts 250°
2026-04-22 09:27 22.49722 116.36234 26426 ft 393 kts 250°
2026-04-22 09:27 22.48698 116.33484 26426 ft 393 kts 250°
2026-04-22 09:28 22.47678 116.30746 26426 ft 393 kts 250°
2026-04-22 09:28 22.46657 116.28005 26429 ft 393 kts 250°
2026-04-22 09:28 22.45634 116.25262 26429 ft 393 kts 250°
2026-04-22 09:28 22.44610 116.22520 26426 ft 393 kts 250°
2026-04-22 09:29 22.43604 116.19825 26426 ft 392 kts 250°
2026-04-22 09:29 22.42582 116.17087 26420 ft 393 kts 250°
2026-04-22 09:29 22.41560 116.14354 26422 ft 393 kts 250°
2026-04-22 09:29 22.40534 116.11608 26422 ft 394 kts 250°
2026-04-22 09:30 22.39506 116.08863 26424 ft 394 kts 250°
2026-04-22 09:30 22.38478 116.06117 26431 ft 394 kts 250°
2026-04-22 09:30 22.37450 116.03373 26427 ft 394 kts 250°
2026-04-22 09:30 22.36420 116.00628 26429 ft 394 kts 250°
2026-04-22 09:31 22.35391 115.97884 26429 ft 394 kts 250°
2026-04-22 09:31 22.34364 115.95147 26425 ft 394 kts 250°
2026-04-22 09:31 22.33334 115.92406 26427 ft 394 kts 250°
2026-04-22 09:31 22.32302 115.89662 26429 ft 394 kts 250°
2026-04-22 09:32 22.31272 115.86922 26423 ft 394 kts 250°
2026-04-22 09:32 22.30299 115.84163 26426 ft 392 kts 255°
2026-04-22 09:32 22.29739 115.81297 26430 ft 390 kts 265°
2026-04-22 09:32 22.29494 115.78383 26425 ft 390 kts 267°
2026-04-22 09:33 22.29354 115.75465 26423 ft 390 kts 269°
2026-04-22 09:33 22.29270 115.72543 26423 ft 390 kts 269°
2026-04-22 09:33 22.29211 115.69621 26423 ft 390 kts 270°
2026-04-22 09:33 22.29156 115.66692 26430 ft 390 kts 270°
2026-04-22 09:34 22.29096 115.63769 26427 ft 390 kts 269°
2026-04-22 09:34 22.29029 115.60841 26426 ft 389 kts 269°
2026-04-22 09:34 22.28955 115.57922 26429 ft 389 kts 269°
2026-04-22 09:35 22.28796 115.52079 26426 ft 389 kts 269°
2026-04-22 09:35 22.28714 115.49158 26424 ft 389 kts 269°
2026-04-22 09:35 22.28631 115.46239 26423 ft 389 kts 269°
2026-04-22 09:35 22.28547 115.43313 26421 ft 389 kts 269°
2026-04-22 09:36 22.28463 115.40393 26422 ft 389 kts 269°
2026-04-22 09:36 22.28379 115.37473 26422 ft 389 kts 269°
2026-04-22 09:36 22.28295 115.34552 26422 ft 389 kts 269°
2026-04-22 09:36 22.28208 115.31631 26413 ft 389 kts 269°
2026-04-22 09:37 22.28119 115.28703 26421 ft 390 kts 269°
2026-04-22 09:37 22.28030 115.25778 26422 ft 390 kts 269°
2026-04-22 09:37 22.27940 115.22850 26427 ft 390 kts 269°
2026-04-22 09:37 22.27849 115.19920 26423 ft 390 kts 269°
2026-04-22 09:38 22.27758 115.16994 26421 ft 390 kts 269°
2026-04-22 09:38 22.27666 115.14063 26423 ft 390 kts 269°
2026-04-22 09:38 22.27574 115.11132 26427 ft 390 kts 269°
2026-04-22 09:38 22.27482 115.08199 26422 ft 390 kts 269°
2026-04-22 09:39 22.27389 115.05275 26419 ft 390 kts 269°
2026-04-22 09:39 22.27295 115.02348 26419 ft 390 kts 269°
2026-04-22 09:39 22.27201 114.99418 26415 ft 390 kts 269°
2026-04-22 09:39 22.27106 114.96487 26419 ft 390 kts 269°
2026-04-22 09:40 22.27011 114.93561 26419 ft 390 kts 269°
2026-04-22 09:40 22.26916 114.90645 26420 ft 390 kts 269°
2026-04-22 09:40 22.26820 114.87711 26419 ft 390 kts 269°
2026-04-22 09:40 22.26723 114.84787 26419 ft 390 kts 269°
2026-04-22 09:41 22.26626 114.81877 26420 ft 390 kts 269°
2026-04-22 09:41 22.26518 114.79013 26420 ft 390 kts 266°
2026-04-22 09:41 22.26117 114.76090 26396 ft 385 kts 260°
2026-04-22 09:41 22.25577 114.73297 26187 ft 373 kts 259°
2026-04-22 09:42 22.25034 114.70625 26154 ft 356 kts 259°
2026-04-22 09:42 22.24409 114.68024 25833 ft 363 kts 253°
2026-04-22 09:42 22.23411 114.65551 25118 ft 372 kts 242°
2026-04-22 09:42 22.21829 114.63227 24240 ft 384 kts 228°
2026-04-22 09:43 22.19724 114.61404 23449 ft 394 kts 213°
2026-04-22 09:43 22.17187 114.60239 22664 ft 400 kts 198°
2026-04-22 09:43 22.14429 114.59854 22010 ft 403 kts 182°
2026-04-22 09:43 22.11652 114.60285 21380 ft 405 kts 166°
2026-04-22 09:44 22.09109 114.61486 20754 ft 406 kts 150°
2026-04-22 09:44 22.06926 114.63404 20177 ft 406 kts 134°
2026-04-22 09:44 22.05302 114.65878 19566 ft 406 kts 118°
2026-04-22 09:44 22.04357 114.68729 18981 ft 404 kts 102°
2026-04-22 09:45 22.04154 114.71767 18394 ft 401 kts 85°
2026-04-22 09:45 22.04746 114.74632 17785 ft 396 kts 66°
2026-04-22 09:45 22.06191 114.77113 17119 ft 389 kts 44°
2026-04-22 09:45 22.08319 114.78822 16484 ft 378 kts 21°
2026-04-22 09:46 22.10794 114.79529 15826 ft 366 kts 359°
2026-04-22 09:46 22.13315 114.79403 15305 ft 356 kts 349°
2026-04-22 09:46 22.15742 114.79089 14839 ft 349 kts 349°
2026-04-22 09:46 22.18157 114.78788 14404 ft 342 kts 351°
2026-04-22 09:47 22.20471 114.78678 14168 ft 329 kts 349°
2026-04-22 09:47 22.22579 114.78009 13884 ft 308 kts 326°
2026-04-22 09:47 22.24096 114.76551 13481 ft 295 kts 303°
2026-04-22 09:47 22.25037 114.74629 12968 ft 289 kts 286°
2026-04-22 09:48 22.25342 114.72513 12477 ft 284 kts 267°
2026-04-22 09:48 22.25063 114.70410 11965 ft 283 kts 258°
2026-04-22 09:48 22.24634 114.68345 11486 ft 280 kts 257°
2026-04-22 09:48 22.24199 114.66303 11029 ft 278 kts 258°
2026-04-22 09:49 22.23778 114.64281 10573 ft 275 kts 258°
2026-04-22 09:49 22.23367 114.62273 10118 ft 273 kts 258°
2026-04-22 09:49 22.23095 114.60927 9798 ft 272 kts 258°
2026-04-22 09:49 22.22694 114.58940 9315 ft 270 kts 258°
2026-04-22 09:50 22.22299 114.56967 8820 ft 268 kts 258°
2026-04-22 09:50 22.21780 114.54372 8187 ft 266 kts 257°
2026-04-22 09:50 22.21518 114.53059 7864 ft 265 kts 257°
2026-04-22 09:50 22.21131 114.51124 7382 ft 263 kts 257°
2026-04-22 09:51 22.20751 114.49224 6931 ft 261 kts 257°
2026-04-22 09:51 22.20369 114.47316 6473 ft 259 kts 257°
2026-04-22 09:51 22.19989 114.45421 6205 ft 259 kts 257°
2026-04-22 09:51 22.19629 114.43519 5999 ft 259 kts 261°
2026-04-22 09:52 22.19668 114.41581 5899 ft 262 kts 281°
2026-04-22 09:52 22.20462 114.39814 5858 ft 268 kts 306°
2026-04-22 09:52 22.21960 114.38590 5787 ft 276 kts 331°
2026-04-22 09:52 22.23762 114.37851 5704 ft 279 kts 337°
2026-04-22 09:53 22.25611 114.37200 5611 ft 279 kts 338°
2026-04-22 09:53 22.27456 114.36551 5530 ft 279 kts 338°
2026-04-22 09:53 22.29296 114.35892 5454 ft 278 kts 337°
2026-04-22 09:53 22.31123 114.35229 5371 ft 278 kts 337°
2026-04-22 09:54 22.32962 114.34556 5275 ft 278 kts 337°
2026-04-22 09:54 22.34791 114.33886 5201 ft 278 kts 337°
2026-04-22 09:54 22.36620 114.33213 5119 ft 278 kts 337°
2026-04-22 09:54 22.38406 114.32463 5040 ft 274 kts 327°
2026-04-22 09:55 22.39835 114.31182 4953 ft 264 kts 302°
2026-04-22 09:55 22.40590 114.29432 4840 ft 249 kts 281°
2026-04-22 09:55 22.40949 114.27667 4752 ft 235 kts 277°
2026-04-22 09:55 22.41237 114.25969 4684 ft 222 kts 278°
2026-04-22 09:56 22.41509 114.24384 4611 ft 209 kts 276°
2026-04-22 09:56 22.41781 114.22816 4567 ft 215 kts 276°
2026-04-22 09:56 22.42061 114.21222 4509 ft 217 kts 277°
2026-04-22 09:56 22.42164 114.19619 4453 ft 213 kts 259°
2026-04-22 09:57 22.41796 114.18082 4321 ft 210 kts 250°
2026-04-22 09:57 22.41323 114.16612 4227 ft 200 kts 248°
2026-04-22 09:57 22.40878 114.15239 4177 ft 187 kts 249°
2026-04-22 09:57 22.40470 114.13972 4108 ft 177 kts 249°
2026-04-22 09:58 22.40064 114.12703 3977 ft 177 kts 249°
2026-04-22 09:58 22.39660 114.11446 3757 ft 177 kts 249°
2026-04-22 09:58 22.39251 114.10188 3502 ft 178 kts 248°
2026-04-22 09:58 22.38844 114.08933 3259 ft 176 kts 249°
2026-04-22 09:59 22.38443 114.07688 3026 ft 175 kts 249°
2026-04-22 09:59 22.38043 114.06449 2804 ft 175 kts 249°
2026-04-22 09:59 22.37649 114.05229 2583 ft 173 kts 247°
2026-04-22 09:59 22.37254 114.03999 2351 ft 170 kts 247°
2026-04-22 10:00 22.36870 114.02798 2151 ft 170 kts 246°
2026-04-22 10:00 22.36484 114.01598 1918 ft 165 kts 247°
2026-04-22 10:00 22.36116 114.00445 1711 ft 162 kts 247°
2026-04-22 10:00 22.35798 113.99485 1545 ft 167 kts 247°
2026-04-22 10:01 22.35591 113.98854 1409 ft 170 kts 247°
2026-04-22 10:01 22.35199 113.97637 1202 ft 170 kts 247°
2026-04-22 10:01 22.34830 113.96489 970 ft 148 kts 250°
2026-04-22 10:01 22.34511 113.95497 791 ft 129 kts 246°
2026-04-22 10:02 22.34247 113.94675 650 ft 105 kts 244°
2026-04-22 10:02 22.33979 113.93890 351 ft 122 kts 244°
2026-04-22 10:02 22.33698 113.93004 307 ft 125 kts 250°
2026-04-22 10:02 22.33421 113.92115 203 ft 125 kts 248°
2026-04-22 10:03 22.33135 113.91241 49 ft 124 kts 246°
2026-04-22 10:03 22.32876 113.90448 38 ft 89 kts 251°
2026-04-22 10:03 22.32737 113.90021 36 ft 36 kts 250°
2026-04-22 10:03 22.32661 113.89777 38 ft 34 kts 251°
2026-04-22 10:04 22.32544 113.89579 38 ft 30 kts 223°
2026-04-22 10:04 22.32489 113.89526 40 ft 0 kts 221°
2026-04-22 10:05 22.32481 113.89519 40 ft 4 kts 221°
2026-04-22 10:05 22.32459 113.89511 38 ft 4 kts 178°
2026-04-22 10:05 22.32428 113.89523 38 ft 6 kts 152°
2026-04-22 10:05 22.32413 113.89570 36 ft 9 kts 82°
2026-04-22 10:06 22.32439 113.89647 37 ft 14 kts 70°
2026-04-22 10:06 22.32480 113.89769 37 ft 20 kts 70°
2026-04-22 10:06 22.32531 113.89932 38 ft 25 kts 71°
2026-04-22 10:06 22.32589 113.90113 35 ft 26 kts 70°
2026-04-22 10:07 22.32652 113.90304 37 ft 27 kts 71°
2026-04-22 10:07 22.32714 113.90502 36 ft 28 kts 71°
2026-04-22 10:07 22.32781 113.90706 35 ft 28 kts 69°
2026-04-22 10:07 22.32847 113.90907 37 ft 29 kts 70°
2026-04-22 10:08 22.32915 113.91116 36 ft 30 kts 71°
2026-04-22 10:08 22.32982 113.91331 36 ft 31 kts 71°
2026-04-22 10:08 22.33055 113.91552 38 ft 30 kts 71°
2026-04-22 10:08 22.33124 113.91770 38 ft 31 kts 71°
2026-04-22 10:09 22.33192 113.91982 38 ft 27 kts 71°
2026-04-22 10:09 22.33197 113.92101 37 ft 8 kts 137°
2026-04-22 10:09 22.33153 113.92129 38 ft 8 kts 153°
2026-04-22 10:09 22.33108 113.92143 39 ft 7 kts 163°
2026-04-22 10:10 22.33047 113.92165 37 ft 14 kts 161°
2026-04-22 10:10 22.32924 113.92212 37 ft 22 kts 161°
2026-04-22 10:10 22.32778 113.92268 38 ft 22 kts 160°
2026-04-22 10:10 22.32631 113.92322 37 ft 22 kts 161°
2026-04-22 10:11 22.32482 113.92375 36 ft 23 kts 162°
2026-04-22 10:11 22.32338 113.92432 38 ft 22 kts 161°
2026-04-22 10:11 22.32250 113.92501 38 ft 9 kts 94°
2026-04-22 10:11 22.32259 113.92559 39 ft 10 kts 73°
2026-04-22 10:12 22.32277 113.92630 37 ft 6 kts 94°
2026-04-22 10:12 22.32259 113.92652 38 ft 4 kts 142°
2026-04-22 10:12 22.32235 113.92665 36 ft 5 kts 156°
2026-04-22 10:12 22.32183 113.92686 37 ft 11 kts 160°
2026-04-22 10:13 22.32094 113.92719 38 ft 15 kts 161°
2026-04-22 10:13 22.31989 113.92758 37 ft 16 kts 161°
2026-04-22 10:13 22.31894 113.92778 37 ft 9 kts 201°
2026-04-22 10:13 22.31860 113.92734 34 ft 7 kts 244°
2026-04-22 10:14 22.31838 113.92680 38 ft 8 kts 249°
2026-04-22 10:14 22.31825 113.92627 38 ft 8 kts 252°
2026-04-22 10:14 22.31802 113.92558 35 ft 12 kts 250°
2026-04-22 10:14 22.31779 113.92481 35 ft 14 kts 250°
2026-04-22 10:15 22.31764 113.92436 35 ft 16 kts 249°
2026-04-22 10:15 22.31722 113.92310 37 ft 20 kts 250°
2026-04-22 10:15 22.31675 113.92163 36 ft 21 kts 251°
2026-04-22 10:15 22.31614 113.92040 39 ft 11 kts 202°
2026-04-22 10:16 22.31542 113.92049 36 ft 11 kts 160°
2026-04-22 10:16 22.31450 113.92084 39 ft 17 kts 161°
2026-04-22 10:16 22.31310 113.92135 37 ft 25 kts 161°
2026-04-22 10:16 22.31127 113.92198 35 ft 30 kts 163°
2026-04-22 10:17 22.30944 113.92273 38 ft 28 kts 161°
2026-04-22 10:17 22.30763 113.92342 37 ft 28 kts 161°
2026-04-22 10:17 22.30643 113.92361 37 ft 9 kts 214°
2026-04-22 10:17 22.30622 113.92323 35 ft 6 kts 244°
2026-04-22 10:18 22.30601 113.92278 37 ft 7 kts 244°
2026-04-22 10:18 22.30588 113.92228 38 ft 7 kts 258°
2026-04-22 10:18 22.30565 113.92149 35 ft 15 kts 250°
2026-04-22 10:18 22.30520 113.92013 34 ft 23 kts 250°
2026-04-22 10:19 22.30462 113.91829 36 ft 29 kts 252°
2026-04-22 10:19 22.30404 113.91651 37 ft 23 kts 250°
2026-04-22 10:19 22.30343 113.91496 35 ft 9 kts 217°
2026-04-22 10:19 22.30279 113.91502 39 ft 12 kts 160°
2026-04-22 10:20 22.30170 113.91543 38 ft 21 kts 161°
2026-04-22 10:20 22.30037 113.91606 35 ft 6 kts 125°
2026-04-22 10:20 22.30035 113.91641 35 ft 4 kts 77°
2026-04-22 10:20 22.30040 113.91675 36 ft 4 kts 98°
2026-04-22 10:21 22.30025 113.91702 37 ft 4 kts 140°
2026-04-22 10:21 22.29999 113.91711 37 ft 5 kts 161°
2026-04-22 10:21 22.29962 113.91726 39 ft 7 kts 160°
2026-04-22 10:21 22.29914 113.91744 38 ft 8 kts 160°
2026-04-22 10:22 22.29866 113.91773 36 ft 6 kts 128°
2026-04-22 10:22 22.29866 113.91806 36 ft 4 kts 71°
2026-04-22 10:22 22.29880 113.91836 37 ft 5 kts 53°
2026-04-22 10:22 22.29901 113.91841 37 ft 2 kts 351°
2026-04-22 10:23 22.29918 113.91833 37 ft 4 kts 339°
2026-04-22 10:23 22.29924 113.91831 38 ft 4 kts 339°
2026-04-22 10:23 22.29935 113.91827 38 ft 5 kts 339°
2026-04-22 10:23 22.29958 113.91818 39 ft 1 kts 340°
2026-04-22 10:24 22.29967 113.91814 38 ft 1 kts 340°
2026-04-22 10:24 22.29973 113.91812 37 ft 0 kts 340°